Flag Weather past 2 weeks in Saanich, British Columbia, Canada

Now
50 °F

Mostly cloudy.


Feels Like: 49 °F
Forecast: 51 / 55 °F
Wind: 3 mph from West

Location: Victoria Int. Airportb. C.

Current Time: Oct 30, 2014 at 8:01:07 AM

Latest Report: Oct 30, 2014 at 7:00 AM


Visibility: 15 mi

Pressure: 29.87 "Hg

Humidity: 94%

Dew point: 48 °F

Location of SaanichLocation

Historic Weather in Saanich — Graph

°F

Saanich temperature yesterday

Maximum temperature yesterday: 63 °F (at 1:00 PM)
Minimum temperature yesterday: 52 °F (at 8:00 PM)
Average temperature yesterday: 56 °F

Past Weeks' High & Low Weather Summary

 TemperatureHumidityPressure
High64 °F (Oct 19, 1:00 PM)100% (Oct 15, 8:00 AM)30.14 "Hg (Oct 15, 8:00 AM)
Low39 °F (Oct 27, 4:00 AM)59% (Oct 29, 2:00 PM)29.26 "Hg (Oct 25, 6:00 PM)
Average53 °F89%29.80 "Hg
* Reported Oct 15 7:00 AM — Oct 30 7:00 AM, Saanich, Weather by CustomWeather, © 2014

Note: Actual official high and low records may vary slightly from our data, if they occured in-between our weather recording intervals... More about our weather records

Advertising

Saanich weather history for previous 24 hours

 ConditionsComfort  
Time TempWeatherWind HumidityBarometerVisibility
7:00 AM
Oct 30
50 °FMostly cloudy.3 mph94%29.87 "Hg15 mi
6:00 AM48 °FFog.5 mph100%29.89 "Hg1 mi
5:52 AM48 °FFog.3 mph100%29.90 "Hg1 mi
5:00 AM46 °FFog.5 mph100%29.93 "Hg0 mi
4:00 AM48 °FPassing clouds.3 mph100%29.96 "Hg30 mi
3:00 AM46 °FPassing clouds.5 mph100%29.98 "Hg30 mi
2:00 AM46 °FPassing clouds.2 mph93%29.99 "Hg30 mi
1:00 AM48 °FPassing clouds.5 mph94%30.01 "Hg30 mi
12:00 AM48 °FPassing clouds.2 mph94%30.02 "Hg30 mi
11:00 PM
Oct 29
52 °FPassing clouds.5 mph94%30.04 "Hg30 mi
10:00 PM54 °FPartly cloudy.No wind88%30.04 "Hg30 mi
9:00 PM52 °FPartly cloudy.No wind94%30.05 "Hg30 mi
8:00 PM52 °FPassing clouds.No wind94%30.06 "Hg30 mi
7:04 PM54 °FLight rain. Passing clouds.2 mph88%30.07 "Hg30 mi
6:00 PM55 °FBroken clouds.2 mph82%30.08 "Hg30 mi
5:00 PM57 °FPartly sunny.7 mph77%30.09 "Hg30 mi
4:00 PM57 °FPartly sunny.9 mph77%30.09 "Hg30 mi
3:00 PM55 °FPartly sunny.16 mph82%30.10 "Hg30 mi
2:00 PM63 °FPassing clouds.7 mph59%30.10 "Hg30 mi
1:00 PM63 °FPassing clouds.8 mph64%30.10 "Hg30 mi
12:00 PM61 °FPassing clouds.9 mph63%30.09 "Hg30 mi
11:00 AM61 °FPassing clouds.8 mph68%30.07 "Hg20 mi
10:00 AM59 °FPassing clouds.3 mph77%30.06 "Hg30 mi
9:00 AM57 °FPartly sunny.7 mph77%30.02 "Hg30 mi
8:00 AM55 °FPassing clouds.10 mph82%29.99 "Hg30 mi
Weather by CustomWeather, © 2014

See weather overviewHow to use our weather pages